Location: Cazarilh
(42.9578°N, 0.5819°E)
Time: 18:00:02
(UTC+00:00)

COSMO-SKYMED 1 - Pass Details

Date: 11 December 2019
Orbit: 621 x 623 km, 97.9° (Epoch: 28 January)

Event Time Altitude Azimuth Distance (km) Brightness Sun altitude
Rises 04:23:37 0° 140° (SE) 2,892 6.6 -31.0°
Reaches altitude 10° 04:25:59 10° 130° (SE) 1,990 5.8 -30.6°
Maximum altitude 04:29:46 30° 69° (ENE) 1,114 4.3 -29.9°
Enters shadow 04:30:56 26° 40° (NE) 1,226 4.3 -29.7°
